owner,sensor,date,latitude,longitude,mass_concentration_of_chlorophyll_in_sea_water,qcFlag 
SCCF RECON,ioos:station:SCCF:18:1,2014-11-01T00:00:00Z,26.6955,-81.8138,6.64,1111122 
SCCF RECON,ioos:station:SCCF:18:1,2014-11-01T01:00:00Z,26.6955,-81.8138,6.45,1111122 
SCCF RECON,ioos:station:SCCF:18:1,2014-11-01T02:00:00Z,26.6955,-81.8138,6.46,1111122 
SCCF RECON,ioos:station:SCCF:18:1,2014-11-01T03:00:00Z,26.6955,-81.8138,6.47,1111122 
SCCF RECON,ioos:station:SCCF:18:1,2014-11-01T04:00:00Z,26.6955,-81.8138,6.54,1111122 
SCCF RECON,ioos:station:SCCF:18:1,2014-11-01T05:00:00Z,26.6955,-81.8138,6.54,1111122 
SCCF RECON,ioos:station:SCCF:18:1,2014-11-01T06:00:00Z,26.6955,-81.8138,6.43,1111122 
SCCF RECON,ioos:station:SCCF:18:1,2014-11-01T07:00:00Z,26.6955,-81.8138,6.33,1111122 
SCCF RECON,ioos:station:SCCF:18:1,2014-11-01T08:00:00Z,26.6955,-81.8138,6.42,1111122 
SCCF RECON,ioos:station:SCCF:18:1,2014-11-01T09:00:00Z,26.6955,-81.8138,6.43,1111122 
SCCF RECON,ioos:station:SCCF:18:1,2014-11-01T10:00:00Z,26.6955,-81.8138,6.47,1111122 
SCCF RECON,ioos:station:SCCF:18:1,2014-11-01T11:00:00Z,26.6955,-81.8138,6.43,1111122 
SCCF RECON,ioos:station:SCCF:18:1,2014-11-01T12:00:00Z,26.6955,-81.8138,6.5,1111122 
SCCF RECON,ioos:station:SCCF:18:1,2014-11-01T13:00:00Z,26.6955,-81.8138,6.45,1111122 
SCCF RECON,ioos:station:SCCF:18:1,2014-11-01T14:00:00Z,26.6955,-81.8138,6.61,1111122 
SCCF RECON,ioos:station:SCCF:18:1,2014-11-01T15:00:00Z,26.6955,-81.8138,6.36,1111122 
SCCF RECON,ioos:station:SCCF:18:1,2014-11-01T16:00:00Z,26.6955,-81.8138,6.55,1111122 
SCCF RECON,ioos:station:SCCF:18:1,2014-11-01T17:00:00Z,26.6955,-81.8138,6.38,1111122 
SCCF RECON,ioos:station:SCCF:18:1,2014-11-01T18:00:00Z,26.6955,-81.8138,6.38,1111122 
SCCF RECON,ioos:station:SCCF:18:1,2014-11-01T19:00:00Z,26.6955,-81.8138,6.35,1111122 
SCCF RECON,ioos:station:SCCF:18:1,2014-11-01T20:00:00Z,26.6955,-81.8138,6.48,1111122 
SCCF RECON,ioos:station:SCCF:18:1,2014-11-01T21:00:00Z,26.6955,-81.8138,6.56,1111122 
SCCF RECON,ioos:station:SCCF:18:1,2014-11-01T22:00:00Z,26.6955,-81.8138,6.58,1111122 
SCCF RECON,ioos:station:SCCF:18:1,2014-11-01T23:00:00Z,26.6955,-81.8138,6.93,1111122 
SCCF RECON,ioos:station:SCCF:18:1,2014-11-02T00:00:00Z,26.6955,-81.8138,6.89,1111122 
SCCF RECON,ioos:station:SCCF:18:1,2014-11-02T01:00:00Z,26.6955,-81.8138,6.81,1111122 
SCCF RECON,ioos:station:SCCF:18:1,2014-11-02T02:00:00Z,26.6955,-81.8138,6.74,1111122 
SCCF RECON,ioos:station:SCCF:18:1,2014-11-02T03:00:00Z,26.6955,-81.8138,6.75,1111122 
SCCF RECON,ioos:station:SCCF:18:1,2014-11-02T04:00:00Z,26.6955,-81.8138,6.69,1111122 
SCCF RECON,ioos:station:SCCF:18:1,2014-11-02T05:00:00Z,26.6955,-81.8138,6.77,1111122 
SCCF RECON,ioos:station:SCCF:18:1,2014-11-02T06:00:00Z,26.6955,-81.8138,6.68,1111122 
SCCF RECON,ioos:station:SCCF:18:1,2014-11-02T07:00:00Z,26.6955,-81.8138,6.61,1111122 
SCCF RECON,ioos:station:SCCF:18:1,2014-11-02T08:00:00Z,26.6955,-81.8138,6.58,1111122 
SCCF RECON,ioos:station:SCCF:18:1,2014-11-02T09:00:00Z,26.6955,-81.8138,6.55,1111122 
SCCF RECON,ioos:station:SCCF:18:1,2014-11-02T10:00:00Z,26.6955,-81.8138,6.51,1111122 
SCCF RECON,ioos:station:SCCF:18:1,2014-11-02T11:00:00Z,26.6955,-81.8138,6.45,1111122 
SCCF RECON,ioos:station:SCCF:18:1,2014-11-02T12:00:00Z,26.6955,-81.8138,6.49,1111122 
SCCF RECON,ioos:station:SCCF:18:1,2014-11-02T13:00:00Z,26.6955,-81.8138,6.43,1111122 
SCCF RECON,ioos:station:SCCF:18:1,2014-11-02T14:00:00Z,26.6955,-81.8138,6.37,1111122 
SCCF RECON,ioos:station:SCCF:18:1,2014-11-02T15:00:00Z,26.6955,-81.8138,6.89,1111122 
SCCF RECON,ioos:station:SCCF:18:1,2014-11-02T16:00:00Z,26.6955,-81.8138,6.61,1111122 
SCCF RECON,ioos:station:SCCF:18:1,2014-11-02T17:00:00Z,26.6955,-81.8138,6.72,1111122 
SCCF RECON,ioos:station:SCCF:18:1,2014-11-02T18:00:00Z,26.6955,-81.8138,6.98,1111122 
SCCF RECON,ioos:station:SCCF:18:1,2014-11-02T19:00:00Z,26.6955,-81.8138,6.92,1111122 
SCCF RECON,ioos:station:SCCF:18:1,2014-11-02T20:00:00Z,26.6955,-81.8138,7.0,1111122 
SCCF RECON,ioos:station:SCCF:18:1,2014-11-02T21:00:00Z,26.6955,-81.8138,6.76,1111122 
SCCF RECON,ioos:station:SCCF:18:1,2014-11-02T22:00:00Z,26.6955,-81.8138,6.58,1111122 
SCCF RECON,ioos:station:SCCF:18:1,2014-11-02T23:00:00Z,26.6955,-81.8138,6.69,1111122 
SCCF RECON,ioos:station:SCCF:18:1,2014-11-03T00:00:00Z,26.6955,-81.8138,6.47,1111122 
SCCF RECON,ioos:station:SCCF:18:1,2014-11-03T01:00:00Z,26.6955,-81.8138,6.37,1111122 
SCCF RECON,ioos:station:SCCF:18:1,2014-11-03T02:00:00Z,26.6955,-81.8138,7.4,1111122 
SCCF RECON,ioos:station:SCCF:18:1,2014-11-03T03:00:00Z,26.6955,-81.8138,6.89,1111122 
SCCF RECON,ioos:station:SCCF:18:1,2014-11-03T04:00:00Z,26.6955,-81.8138,6.87,1111122 
SCCF RECON,ioos:station:SCCF:18:1,2014-11-03T05:00:00Z,26.6955,-81.8138,7.02,1111122 
SCCF RECON,ioos:station:SCCF:18:1,2014-11-03T06:00:00Z,26.6955,-81.8138,6.74,1111122 
SCCF RECON,ioos:station:SCCF:18:1,2014-11-03T07:00:00Z,26.6955,-81.8138,6.47,1111122 
SCCF RECON,ioos:station:SCCF:18:1,2014-11-03T08:00:00Z,26.6955,-81.8138,6.34,1111122 
SCCF RECON,ioos:station:SCCF:18:1,2014-11-03T09:00:00Z,26.6955,-81.8138,6.31,1111122 
SCCF RECON,ioos:station:SCCF:18:1,2014-11-03T10:00:00Z,26.6955,-81.8138,6.61,1111122 
SCCF RECON,ioos:station:SCCF:18:1,2014-11-03T11:00:00Z,26.6955,-81.8138,6.5,1111122 
SCCF RECON,ioos:station:SCCF:18:1,2014-11-03T12:00:00Z,26.6955,-81.8138,6.5,1111122 
SCCF RECON,ioos:station:SCCF:18:1,2014-11-03T13:00:00Z,26.6955,-81.8138,6.59,1111122 
SCCF RECON,ioos:station:SCCF:18:1,2014-11-03T14:00:00Z,26.6955,-81.8138,6.63,1111122 
SCCF RECON,ioos:station:SCCF:18:1,2014-11-03T15:00:00Z,26.6955,-81.8138,7.51,1111122 
SCCF RECON,ioos:station:SCCF:18:1,2014-11-03T16:00:00Z,26.6955,-81.8138,7.67,1111122 
SCCF RECON,ioos:station:SCCF:18:1,2014-11-03T17:00:00Z,26.6955,-81.8138,7.74,1111122 
SCCF RECON,ioos:station:SCCF:18:1,2014-11-03T18:00:00Z,26.6955,-81.8138,7.97,1111122 
SCCF RECON,ioos:station:SCCF:18:1,2014-11-03T19:00:00Z,26.6955,-81.8138,7.62,1111122 
SCCF RECON,ioos:station:SCCF:18:1,2014-11-03T20:00:00Z,26.6955,-81.8138,6.88,1111122 
SCCF RECON,ioos:station:SCCF:18:1,2014-11-03T21:00:00Z,26.6955,-81.8138,6.91,1111122 
SCCF RECON,ioos:station:SCCF:18:1,2014-11-03T22:00:00Z,26.6955,-81.8138,6.98,1111122 
SCCF RECON,ioos:station:SCCF:18:1,2014-11-03T23:00:00Z,26.6955,-81.8138,6.86,1111122 
SCCF RECON,ioos:station:SCCF:18:1,2014-11-04T00:00:00Z,26.6955,-81.8138,6.7,1111122 
SCCF RECON,ioos:station:SCCF:18:1,2014-11-04T01:00:00Z,26.6955,-81.8138,6.66,1111122 
SCCF RECON,ioos:station:SCCF:18:1,2014-11-04T02:00:00Z,26.6955,-81.8138,6.97,1111122 
SCCF RECON,ioos:station:SCCF:18:1,2014-11-04T03:00:00Z,26.6955,-81.8138,8.25,1111122 
SCCF RECON,ioos:station:SCCF:18:1,2014-11-04T04:00:00Z,26.6955,-81.8138,7.1,1111122 
SCCF RECON,ioos:station:SCCF:18:1,2014-11-04T05:00:00Z,26.6955,-81.8138,8.04,1111122 
SCCF RECON,ioos:station:SCCF:18:1,2014-11-04T06:00:00Z,26.6955,-81.8138,7.7,1111122 
SCCF RECON,ioos:station:SCCF:18:1,2014-11-04T07:00:00Z,26.6955,-81.8138,7.3,1111122 
SCCF RECON,ioos:station:SCCF:18:1,2014-11-04T08:00:00Z,26.6955,-81.8138,7.05,1111122 
SCCF RECON,ioos:station:SCCF:18:1,2014-11-04T09:00:00Z,26.6955,-81.8138,6.26,1111122 
SCCF RECON,ioos:station:SCCF:18:1,2014-11-04T10:00:00Z,26.6955,-81.8138,6.41,1111122 
SCCF RECON,ioos:station:SCCF:18:1,2014-11-04T11:00:00Z,26.6955,-81.8138,6.64,1111122 
SCCF RECON,ioos:station:SCCF:18:1,2014-11-04T12:00:00Z,26.6955,-81.8138,6.58,1111122 
SCCF RECON,ioos:station:SCCF:18:1,2014-11-04T13:00:00Z,26.6955,-81.8138,6.45,1111122 
SCCF RECON,ioos:station:SCCF:18:1,2014-11-04T14:00:00Z,26.6955,-81.8138,6.6,1111122 
SCCF RECON,ioos:station:SCCF:18:1,2014-11-04T15:00:00Z,26.6955,-81.8138,9.3,1111122 
SCCF RECON,ioos:station:SCCF:18:1,2014-11-04T16:00:00Z,26.6955,-81.8138,8.0,1111122 
SCCF RECON,ioos:station:SCCF:18:1,2014-11-04T17:00:00Z,26.6955,-81.8138,8.71,1111122 
SCCF RECON,ioos:station:SCCF:18:1,2014-11-04T18:00:00Z,26.6955,-81.8138,9.03,1111122 
SCCF RECON,ioos:station:SCCF:18:1,2014-11-04T19:00:00Z,26.6955,-81.8138,9.55,1111122 
SCCF RECON,ioos:station:SCCF:18:1,2014-11-04T20:00:00Z,26.6955,-81.8138,8.42,1111122 
SCCF RECON,ioos:station:SCCF:18:1,2014-11-04T21:00:00Z,26.6955,-81.8138,8.03,1111122 
SCCF RECON,ioos:station:SCCF:18:1,2014-11-04T22:00:00Z,26.6955,-81.8138,8.42,1111122 
SCCF RECON,ioos:station:SCCF:18:1,2014-11-04T23:00:00Z,26.6955,-81.8138,8.1,1111122 
SCCF RECON,ioos:station:SCCF:18:1,2014-11-05T00:00:00Z,26.6955,-81.8138,7.85,1111122 
SCCF RECON,ioos:station:SCCF:18:1,2014-11-05T01:00:00Z,26.6955,-81.8138,6.97,1111122 
SCCF RECON,ioos:station:SCCF:18:1,2014-11-05T02:00:00Z,26.6955,-81.8138,6.97,1111122 
SCCF RECON,ioos:station:SCCF:18:1,2014-11-05T03:00:00Z,26.6955,-81.8138,10.28,1111122 
SCCF RECON,ioos:station:SCCF:18:1,2014-11-05T04:00:00Z,26.6955,-81.8138,8.22,1111122 
SCCF RECON,ioos:station:SCCF:18:1,2014-11-05T05:00:00Z,26.6955,-81.8138,8.55,1111122 
SCCF RECON,ioos:station:SCCF:18:1,2014-11-05T06:00:00Z,26.6955,-81.8138,10.35,1111122 
SCCF RECON,ioos:station:SCCF:18:1,2014-11-05T07:00:00Z,26.6955,-81.8138,12.42,1111122 
SCCF RECON,ioos:station:SCCF:18:1,2014-11-05T08:00:00Z,26.6955,-81.8138,9.04,1111122 
SCCF RECON,ioos:station:SCCF:18:1,2014-11-05T09:00:00Z,26.6955,-81.8138,7.44,1111122 
SCCF RECON,ioos:station:SCCF:18:1,2014-11-05T10:00:00Z,26.6955,-81.8138,6.94,1111122 
SCCF RECON,ioos:station:SCCF:18:1,2014-11-05T11:00:00Z,26.6955,-81.8138,6.92,1111122 
SCCF RECON,ioos:station:SCCF:18:1,2014-11-05T12:00:00Z,26.6955,-81.8138,7.56,1111122 
SCCF RECON,ioos:station:SCCF:18:1,2014-11-05T13:00:00Z,26.6955,-81.8138,7.0,1111122 
SCCF RECON,ioos:station:SCCF:18:1,2014-11-05T14:00:00Z,26.6955,-81.8138,6.9,1111122 
SCCF RECON,ioos:station:SCCF:18:1,2014-11-05T15:00:00Z,26.6955,-81.8138,7.2,1111122 
SCCF RECON,ioos:station:SCCF:18:1,2014-11-05T16:00:00Z,26.6955,-81.8138,9.34,1111122 
SCCF RECON,ioos:station:SCCF:18:1,2014-11-05T17:00:00Z,26.6955,-81.8138,10.4,1111122 
SCCF RECON,ioos:station:SCCF:18:1,2014-11-05T18:00:00Z,26.6955,-81.8138,10.6,1111122 
SCCF RECON,ioos:station:SCCF:18:1,2014-11-05T19:00:00Z,26.6955,-81.8138,15.04,1111122 
SCCF RECON,ioos:station:SCCF:18:1,2014-11-05T20:00:00Z,26.6955,-81.8138,14.88,1111122 
SCCF RECON,ioos:station:SCCF:18:1,2014-11-05T21:00:00Z,26.6955,-81.8138,11.62,1111122 
SCCF RECON,ioos:station:SCCF:18:1,2014-11-05T22:00:00Z,26.6955,-81.8138,11.85,1111122 
SCCF RECON,ioos:station:SCCF:18:1,2014-11-05T23:00:00Z,26.6955,-81.8138,10.06,1111122 
SCCF RECON,ioos:station:SCCF:18:1,2014-11-06T00:00:00Z,26.6955,-81.8138,9.81,1111122 
SCCF RECON,ioos:station:SCCF:18:1,2014-11-06T01:00:00Z,26.6955,-81.8138,9.78,1111122 
SCCF RECON,ioos:station:SCCF:18:1,2014-11-06T02:00:00Z,26.6955,-81.8138,9.06,1111122 
SCCF RECON,ioos:station:SCCF:18:1,2014-11-06T03:00:00Z,26.6955,-81.8138,10.48,1111122 
SCCF RECON,ioos:station:SCCF:18:1,2014-11-06T04:00:00Z,26.6955,-81.8138,12.98,1111122 
SCCF RECON,ioos:station:SCCF:18:1,2014-11-06T05:00:00Z,26.6955,-81.8138,14.74,1111122 
SCCF RECON,ioos:station:SCCF:18:1,2014-11-06T06:00:00Z,26.6955,-81.8138,17.38,1111122 
SCCF RECON,ioos:station:SCCF:18:1,2014-11-06T07:00:00Z,26.6955,-81.8138,19.92,1111122 
SCCF RECON,ioos:station:SCCF:18:1,2014-11-06T08:00:00Z,26.6955,-81.8138,20.4,1111122 
SCCF RECON,ioos:station:SCCF:18:1,2014-11-06T09:00:00Z,26.6955,-81.8138,13.45,1111122 
SCCF RECON,ioos:station:SCCF:18:1,2014-11-06T10:00:00Z,26.6955,-81.8138,11.02,1111122 
SCCF RECON,ioos:station:SCCF:18:1,2014-11-06T11:00:00Z,26.6955,-81.8138,11.13,1111122 
SCCF RECON,ioos:station:SCCF:18:1,2014-11-06T12:00:00Z,26.6955,-81.8138,11.53,1111122 
SCCF RECON,ioos:station:SCCF:18:1,2014-11-06T13:00:00Z,26.6955,-81.8138,8.71,1111122 
SCCF RECON,ioos:station:SCCF:18:1,2014-11-06T14:00:00Z,26.6955,-81.8138,8.34,1111122 
SCCF RECON,ioos:station:SCCF:18:1,2014-11-06T15:00:00Z,26.6955,-81.8138,8.57,1111122 
SCCF RECON,ioos:station:SCCF:18:1,2014-11-06T16:00:00Z,26.6955,-81.8138,8.52,1111122 
SCCF RECON,ioos:station:SCCF:18:1,2014-11-06T17:00:00Z,26.6955,-81.8138,12.93,1111122 
SCCF RECON,ioos:station:SCCF:18:1,2014-11-06T18:00:00Z,26.6955,-81.8138,15.6,1111122 
SCCF RECON,ioos:station:SCCF:18:1,2014-11-06T19:00:00Z,26.6955,-81.8138,20.66,1111122 
SCCF RECON,ioos:station:SCCF:18:1,2014-11-06T20:00:00Z,26.6955,-81.8138,25.72,1111122 
SCCF RECON,ioos:station:SCCF:18:1,2014-11-06T21:00:00Z,26.6955,-81.8138,30.45,1111122 
SCCF RECON,ioos:station:SCCF:18:1,2014-11-06T22:00:00Z,26.6955,-81.8138,28.35,1111122 
SCCF RECON,ioos:station:SCCF:18:1,2014-11-06T23:00:00Z,26.6955,-81.8138,22.79,1111122 
SCCF RECON,ioos:station:SCCF:18:1,2014-11-07T00:00:00Z,26.6955,-81.8138,17.18,1111122 
SCCF RECON,ioos:station:SCCF:18:1,2014-11-07T01:00:00Z,26.6955,-81.8138,17.0,1111122 
SCCF RECON,ioos:station:SCCF:18:1,2014-11-07T02:00:00Z,26.6955,-81.8138,14.07,1111122 
SCCF RECON,ioos:station:SCCF:18:1,2014-11-07T03:00:00Z,26.6955,-81.8138,11.61,1111122 
SCCF RECON,ioos:station:SCCF:18:1,2014-11-07T04:00:00Z,26.6955,-81.8138,19.57,1111122 
SCCF RECON,ioos:station:SCCF:18:1,2014-11-07T05:00:00Z,26.6955,-81.8138,18.61,1111122 
SCCF RECON,ioos:station:SCCF:18:1,2014-11-07T06:00:00Z,26.6955,-81.8138,24.17,1111122 
SCCF RECON,ioos:station:SCCF:18:1,2014-11-07T07:00:00Z,26.6955,-81.8138,24.77,1111122 
SCCF RECON,ioos:station:SCCF:18:1,2014-11-07T08:00:00Z,26.6955,-81.8138,26.15,1111122 
SCCF RECON,ioos:station:SCCF:18:1,2014-11-07T09:00:00Z,26.6955,-81.8138,24.04,1111122 
SCCF RECON,ioos:station:SCCF:18:1,2014-11-07T10:00:00Z,26.6955,-81.8138,15.99,1111122 
SCCF RECON,ioos:station:SCCF:18:1,2014-11-07T11:00:00Z,26.6955,-81.8138,15.28,1111122 
SCCF RECON,ioos:station:SCCF:18:1,2014-11-07T12:00:00Z,26.6955,-81.8138,15.3,1111122 
SCCF RECON,ioos:station:SCCF:18:1,2014-11-07T13:00:00Z,26.6955,-81.8138,12.43,1111122 
SCCF RECON,ioos:station:SCCF:18:1,2014-11-07T14:00:00Z,26.6955,-81.8138,10.95,1111122 
SCCF RECON,ioos:station:SCCF:18:1,2014-11-07T15:00:00Z,26.6955,-81.8138,11.44,1111122 
SCCF RECON,ioos:station:SCCF:18:1,2014-11-07T16:00:00Z,26.6955,-81.8138,11.62,1111122 
SCCF RECON,ioos:station:SCCF:18:1,2014-11-07T17:00:00Z,26.6955,-81.8138,10.49,1111122 
SCCF RECON,ioos:station:SCCF:18:1,2014-11-07T18:00:00Z,26.6955,-81.8138,15.83,1111122 
SCCF RECON,ioos:station:SCCF:18:1,2014-11-07T19:00:00Z,26.6955,-81.8138,17.84,1111122 
SCCF RECON,ioos:station:SCCF:18:1,2014-11-07T20:00:00Z,26.6955,-81.8138,21.67,1111122 
SCCF RECON,ioos:station:SCCF:18:1,2014-11-07T21:00:00Z,26.6955,-81.8138,24.17,1111122 
SCCF RECON,ioos:station:SCCF:18:1,2014-11-07T22:00:00Z,26.6955,-81.8138,27.47,1111122 
SCCF RECON,ioos:station:SCCF:18:1,2014-11-07T23:00:00Z,26.6955,-81.8138,27.02,1111122 
SCCF RECON,ioos:station:SCCF:18:1,2014-11-08T00:00:00Z,26.6955,-81.8138,17.94,1111122 
SCCF RECON,ioos:station:SCCF:18:1,2014-11-08T01:00:00Z,26.6955,-81.8138,17.71,1111122 
SCCF RECON,ioos:station:SCCF:18:1,2014-11-08T02:00:00Z,26.6955,-81.8138,13.01,1111122 
SCCF RECON,ioos:station:SCCF:18:1,2014-11-08T03:00:00Z,26.6955,-81.8138,19.26,1111122 
SCCF RECON,ioos:station:SCCF:18:1,2014-11-08T04:00:00Z,26.6955,-81.8138,14.82,1111122 
SCCF RECON,ioos:station:SCCF:18:1,2014-11-08T05:00:00Z,26.6955,-81.8138,19.26,1111122 
SCCF RECON,ioos:station:SCCF:18:1,2014-11-08T06:00:00Z,26.6955,-81.8138,19.12,1111122 
SCCF RECON,ioos:station:SCCF:18:1,2014-11-08T07:00:00Z,26.6955,-81.8138,18.04,1111122 
SCCF RECON,ioos:station:SCCF:18:1,2014-11-08T08:00:00Z,26.6955,-81.8138,22.41,1111122 
SCCF RECON,ioos:station:SCCF:18:1,2014-11-08T09:00:00Z,26.6955,-81.8138,21.83,1111122 
SCCF RECON,ioos:station:SCCF:18:1,2014-11-08T10:00:00Z,26.6955,-81.8138,15.17,1111122 
SCCF RECON,ioos:station:SCCF:18:1,2014-11-08T11:00:00Z,26.6955,-81.8138,14.6,1111122 
SCCF RECON,ioos:station:SCCF:18:1,2014-11-08T12:00:00Z,26.6955,-81.8138,15.35,1111122 
SCCF RECON,ioos:station:SCCF:18:1,2014-11-08T13:00:00Z,26.6955,-81.8138,13.4,1111122 
SCCF RECON,ioos:station:SCCF:18:1,2014-11-08T14:00:00Z,26.6955,-81.8138,11.56,1111122 
SCCF RECON,ioos:station:SCCF:18:1,2014-11-08T15:00:00Z,26.6955,-81.8138,11.65,1111122 
SCCF RECON,ioos:station:SCCF:18:1,2014-11-08T16:00:00Z,26.6955,-81.8138,10.24,1111122 
SCCF RECON,ioos:station:SCCF:18:1,2014-11-08T17:00:00Z,26.6955,-81.8138,10.53,1111122 
SCCF RECON,ioos:station:SCCF:18:1,2014-11-08T18:00:00Z,26.6955,-81.8138,9.72,1111122 
SCCF RECON,ioos:station:SCCF:18:1,2014-11-08T19:00:00Z,26.6955,-81.8138,12.71,1111122 
SCCF RECON,ioos:station:SCCF:18:1,2014-11-08T20:00:00Z,26.6955,-81.8138,15.43,1111122 
SCCF RECON,ioos:station:SCCF:18:1,2014-11-08T21:00:00Z,26.6955,-81.8138,16.25,1111122 
SCCF RECON,ioos:station:SCCF:18:1,2014-11-08T22:00:00Z,26.6955,-81.8138,18.83,1111122 
SCCF RECON,ioos:station:SCCF:18:1,2014-11-08T23:00:00Z,26.6955,-81.8138,21.07,1111122 
SCCF RECON,ioos:station:SCCF:18:1,2014-11-09T00:00:00Z,26.6955,-81.8138,15.4,1111122 
SCCF RECON,ioos:station:SCCF:18:1,2014-11-09T01:00:00Z,26.6955,-81.8138,13.67,1111122 
SCCF RECON,ioos:station:SCCF:18:1,2014-11-09T02:00:00Z,26.6955,-81.8138,11.08,1111122 
SCCF RECON,ioos:station:SCCF:18:1,2014-11-09T03:00:00Z,26.6955,-81.8138,13.01,1111122 
SCCF RECON,ioos:station:SCCF:18:1,2014-11-09T04:00:00Z,26.6955,-81.8138,9.74,1111122 
SCCF RECON,ioos:station:SCCF:18:1,2014-11-09T05:00:00Z,26.6955,-81.8138,9.21,1111122 
SCCF RECON,ioos:station:SCCF:18:1,2014-11-09T06:00:00Z,26.6955,-81.8138,11.19,1111122 
SCCF RECON,ioos:station:SCCF:18:1,2014-11-09T07:00:00Z,26.6955,-81.8138,10.52,1111122 
SCCF RECON,ioos:station:SCCF:18:1,2014-11-09T08:00:00Z,26.6955,-81.8138,10.84,1111122 
SCCF RECON,ioos:station:SCCF:18:1,2014-11-09T09:00:00Z,26.6955,-81.8138,12.17,1111122 
SCCF RECON,ioos:station:SCCF:18:1,2014-11-09T10:00:00Z,26.6955,-81.8138,12.73,1111122 
SCCF RECON,ioos:station:SCCF:18:1,2014-11-09T11:00:00Z,26.6955,-81.8138,8.46,1111122 
SCCF RECON,ioos:station:SCCF:18:1,2014-11-09T12:00:00Z,26.6955,-81.8138,8.36,1111122 
SCCF RECON,ioos:station:SCCF:18:1,2014-11-09T13:00:00Z,26.6955,-81.8138,8.43,1111122 
SCCF RECON,ioos:station:SCCF:18:1,2014-11-09T14:00:00Z,26.6955,-81.8138,9.02,1111122 
SCCF RECON,ioos:station:SCCF:18:1,2014-11-09T15:00:00Z,26.6955,-81.8138,7.84,1111122 
SCCF RECON,ioos:station:SCCF:18:1,2014-11-09T16:00:00Z,26.6955,-81.8138,7.42,1111122 
SCCF RECON,ioos:station:SCCF:18:1,2014-11-09T17:00:00Z,26.6955,-81.8138,7.44,1111122 
SCCF RECON,ioos:station:SCCF:18:1,2014-11-09T18:00:00Z,26.6955,-81.8138,7.63,1111122 
SCCF RECON,ioos:station:SCCF:18:1,2014-11-09T19:00:00Z,26.6955,-81.8138,7.72,1111122 
SCCF RECON,ioos:station:SCCF:18:1,2014-11-09T20:00:00Z,26.6955,-81.8138,9.09,1111122 
SCCF RECON,ioos:station:SCCF:18:1,2014-11-09T21:00:00Z,26.6955,-81.8138,9.47,1111122 
SCCF RECON,ioos:station:SCCF:18:1,2014-11-09T22:00:00Z,26.6955,-81.8138,9.39,1111122 
SCCF RECON,ioos:station:SCCF:18:1,2014-11-09T23:00:00Z,26.6955,-81.8138,10.51,1111122 
SCCF RECON,ioos:station:SCCF:18:1,2014-11-10T00:00:00Z,26.6955,-81.8138,8.2,1111122 
SCCF RECON,ioos:station:SCCF:18:1,2014-11-10T01:00:00Z,26.6955,-81.8138,7.41,1111122 
SCCF RECON,ioos:station:SCCF:18:1,2014-11-10T02:00:00Z,26.6955,-81.8138,7.27,1111122 
SCCF RECON,ioos:station:SCCF:18:1,2014-11-10T03:00:00Z,26.6955,-81.8138,6.99,1111122 
SCCF RECON,ioos:station:SCCF:18:1,2014-11-10T04:00:00Z,26.6955,-81.8138,7.04,1111122 
SCCF RECON,ioos:station:SCCF:18:1,2014-11-10T05:00:00Z,26.6955,-81.8138,6.92,1111122 
SCCF RECON,ioos:station:SCCF:18:1,2014-11-10T06:00:00Z,26.6955,-81.8138,8.11,1111122 
SCCF RECON,ioos:station:SCCF:18:1,2014-11-10T07:00:00Z,26.6955,-81.8138,9.79,1111122 
SCCF RECON,ioos:station:SCCF:18:1,2014-11-10T08:00:00Z,26.6955,-81.8138,9.31,1111122 
SCCF RECON,ioos:station:SCCF:18:1,2014-11-10T09:00:00Z,26.6955,-81.8138,9.65,1111122 
SCCF RECON,ioos:station:SCCF:18:1,2014-11-10T10:00:00Z,26.6955,-81.8138,9.47,1111122 
SCCF RECON,ioos:station:SCCF:18:1,2014-11-10T11:00:00Z,26.6955,-81.8138,8.27,1111122 
SCCF RECON,ioos:station:SCCF:18:1,2014-11-10T12:00:00Z,26.6955,-81.8138,6.9,1111122 
SCCF RECON,ioos:station:SCCF:18:1,2014-11-10T13:00:00Z,26.6955,-81.8138,7.01,1111122 
SCCF RECON,ioos:station:SCCF:18:1,2014-11-10T14:00:00Z,26.6955,-81.8138,7.04,1111122 
SCCF RECON,ioos:station:SCCF:18:1,2014-11-10T15:00:00Z,26.6955,-81.8138,7.18,1111122 
SCCF RECON,ioos:station:SCCF:18:1,2014-11-10T16:00:00Z,26.6955,-81.8138,7.06,1111122 
SCCF RECON,ioos:station:SCCF:18:1,2014-11-10T17:00:00Z,26.6955,-81.8138,6.69,1111122 
SCCF RECON,ioos:station:SCCF:18:1,2014-11-10T18:00:00Z,26.6955,-81.8138,6.78,1111122 
SCCF RECON,ioos:station:SCCF:18:1,2014-11-10T19:00:00Z,26.6955,-81.8138,6.93,1111122 
SCCF RECON,ioos:station:SCCF:18:1,2014-11-10T20:00:00Z,26.6955,-81.8138,8.24,1111122 
SCCF RECON,ioos:station:SCCF:18:1,2014-11-10T21:00:00Z,26.6955,-81.8138,8.72,1111122 
SCCF RECON,ioos:station:SCCF:18:1,2014-11-10T22:00:00Z,26.6955,-81.8138,8.28,1111122 
SCCF RECON,ioos:station:SCCF:18:1,2014-11-10T23:00:00Z,26.6955,-81.8138,9.99,1111122 
SCCF RECON,ioos:station:SCCF:18:1,2014-11-11T00:00:00Z,26.6955,-81.8138,11.86,1111122 
SCCF RECON,ioos:station:SCCF:18:1,2014-11-11T01:00:00Z,26.6955,-81.8138,8.5,1111122 
SCCF RECON,ioos:station:SCCF:18:1,2014-11-11T02:00:00Z,26.6955,-81.8138,7.75,1111122 
SCCF RECON,ioos:station:SCCF:18:1,2014-11-11T03:00:00Z,26.6955,-81.8138,6.99,1111122 
SCCF RECON,ioos:station:SCCF:18:1,2014-11-11T04:00:00Z,26.6955,-81.8138,6.99,1111122 
SCCF RECON,ioos:station:SCCF:18:1,2014-11-11T05:00:00Z,26.6955,-81.8138,6.65,1111122 
SCCF RECON,ioos:station:SCCF:18:1,2014-11-11T06:00:00Z,26.6955,-81.8138,6.77,1111122 
SCCF RECON,ioos:station:SCCF:18:1,2014-11-11T07:00:00Z,26.6955,-81.8138,7.29,1111122 
SCCF RECON,ioos:station:SCCF:18:1,2014-11-11T08:00:00Z,26.6955,-81.8138,8.56,1111122 
SCCF RECON,ioos:station:SCCF:18:1,2014-11-11T09:00:00Z,26.6955,-81.8138,7.81,1111122 
SCCF RECON,ioos:station:SCCF:18:1,2014-11-11T10:00:00Z,26.6955,-81.8138,8.14,1111122 
SCCF RECON,ioos:station:SCCF:18:1,2014-11-11T11:00:00Z,26.6955,-81.8138,9.12,1111122 
SCCF RECON,ioos:station:SCCF:18:1,2014-11-11T12:00:00Z,26.6955,-81.8138,6.92,1111122 
SCCF RECON,ioos:station:SCCF:18:1,2014-11-11T13:00:00Z,26.6955,-81.8138,6.68,1111122 
SCCF RECON,ioos:station:SCCF:18:1,2014-11-11T14:00:00Z,26.6955,-81.8138,6.88,1111122 
SCCF RECON,ioos:station:SCCF:18:1,2014-11-11T15:00:00Z,26.6955,-81.8138,7.14,1111122 
SCCF RECON,ioos:station:SCCF:18:1,2014-11-11T16:00:00Z,26.6955,-81.8138,6.87,1111122 
SCCF RECON,ioos:station:SCCF:18:1,2014-11-11T17:00:00Z,26.6955,-81.8138,6.75,1111122 
SCCF RECON,ioos:station:SCCF:18:1,2014-11-11T18:00:00Z,26.6955,-81.8138,6.57,1111122 
SCCF RECON,ioos:station:SCCF:18:1,2014-11-11T19:00:00Z,26.6955,-81.8138,6.71,1111122 
SCCF RECON,ioos:station:SCCF:18:1,2014-11-11T20:00:00Z,26.6955,-81.8138,7.07,1111122 
SCCF RECON,ioos:station:SCCF:18:1,2014-11-11T21:00:00Z,26.6955,-81.8138,8.25,1111122 
SCCF RECON,ioos:station:SCCF:18:1,2014-11-11T22:00:00Z,26.6955,-81.8138,9.36,1111122 
SCCF RECON,ioos:station:SCCF:18:1,2014-11-11T23:00:00Z,26.6955,-81.8138,8.01,1111122 
SCCF RECON,ioos:station:SCCF:18:1,2014-11-12T00:00:00Z,26.6955,-81.8138,9.35,1111122 
SCCF RECON,ioos:station:SCCF:18:1,2014-11-12T01:00:00Z,26.6955,-81.8138,11.6,1111122 
SCCF RECON,ioos:station:SCCF:18:1,2014-11-12T02:00:00Z,26.6955,-81.8138,8.87,1111122 
SCCF RECON,ioos:station:SCCF:18:1,2014-11-12T03:00:00Z,26.6955,-81.8138,8.06,1111122 
SCCF RECON,ioos:station:SCCF:18:1,2014-11-12T04:00:00Z,26.6955,-81.8138,7.54,1111122 
SCCF RECON,ioos:station:SCCF:18:1,2014-11-12T05:00:00Z,26.6955,-81.8138,7.02,1111122 
SCCF RECON,ioos:station:SCCF:18:1,2014-11-12T06:00:00Z,26.6955,-81.8138,6.9,1111122 
SCCF RECON,ioos:station:SCCF:18:1,2014-11-12T07:00:00Z,26.6955,-81.8138,6.83,1111122 
SCCF RECON,ioos:station:SCCF:18:1,2014-11-12T08:00:00Z,26.6955,-81.8138,7.97,1111122 
SCCF RECON,ioos:station:SCCF:18:1,2014-11-12T09:00:00Z,26.6955,-81.8138,7.63,1111122 
SCCF RECON,ioos:station:SCCF:18:1,2014-11-12T10:00:00Z,26.6955,-81.8138,8.2,1111122 
SCCF RECON,ioos:station:SCCF:18:1,2014-11-12T11:00:00Z,26.6955,-81.8138,8.85,1111122 
SCCF RECON,ioos:station:SCCF:18:1,2014-11-12T12:00:00Z,26.6955,-81.8138,8.06,1111122 